Шамалган

Казахстан     43°07′30″N   76°27′59″E
темп.,
°C
ветер,
м/с
пор.,
м/с
влажн.,
%
обл.,
%
осадки,
мм/ч
давл.,
гПа
погр.,
м
25 февраля, чт
чт2500:00−2ю248799 2.2 1018128
03:00−6ссз4697100 5.3 1021419
06:00−9сз3496100 7.4 1025381
09:00−10ссз3495100 1.6 1029452
12:00−11зсз3481100 2.9 1029735
15:00−9всв0272100 0.3 1029762
18:00−11ююв4576100 0.4 1033162
21:00−11ю4573100 0.0 103774
26 февраля, пт
пт2600:00−12ю3482100 0.1 103963
03:00−12ю2283100 0.1 104127
06:00−14ююв228199 0.2 104120
09:00−13ююв347881 0.0 1041123
12:00−9в346557 0.0 1037646
15:00−8всв346536 0.0 1034807
18:00−11вюв227767 0.0 103524
21:00−14ююв227785 0.0 103720
27 февраля, сб
сб2700:00−13юв127788 0.0 103520
03:00−13юв117895 0.0 103321
06:00−13вюв017697 0.0 103220
09:00−11в007899 0.0 103233
12:00−8с117399 0.0 1029291
15:00−6сз2271100 0.0 1028374
18:00−7зсз1281100 0.0 103121
21:00−8юз1163100 0.0 103321
28 февраля, вс
вс2800:00−8ю2249100 0.0 103421
03:00−9юв114233 0.0 103521
06:00−11вюв225516 0.0 103521
09:00−8всв11720 0.0 103424
12:00−5св22810 0.0 1028149
15:00−2с11805 0.0 1025200
18:00−5зсз11823 0.0 102521
21:00−6з12670 0.0 102621
1 марта, пн
пн100:00−6зюз23630 0.0 102624
03:00−6зюз33600 0.0 102536
06:00−6зюз22540 0.0 102421
09:00−2ююв11520 0.0 102421
12:00+1вюв11920 0.0 102158
15:00+2в129821 0.0 102046
18:000юв116111 0.0 102122
21:000ю22440 0.0 102422